1500274800.54,1839,16.38,74434.0,17.05,-18.45,-19.75,0,*7F
1500274801.77,1840,16.38,74434.5,17.05,-19.17,-20.43,0,*78
1500274803.02,1841,16.38,74432.5,17.05,-19.13,-20.19,0,*72
1500274804.28,1842,16.38,74434.8,17.07,-19.65,-21.23,0,*7A
1500274805.53,1843,16.38,74432.8,17.05,-21.63,-23.03,0,*74
1500274806.78,1844,16.38,74432.8,17.05,-21.53,-22.93,0,*78
1500274808.0,1845,16.38,74438.0,17.01,-22.27,-23.43,0,*71
1500274809.26,1846,16.38,74432.8,16.99,-21.33,-22.77,0,*72
1500274810.5,1847,16.38,74432.0,16.97,-20.35,-21.63,0,*7C
1500274811.72,1848,16.38,74434.8,16.95,-18.55,-19.91,0,*7A
1500274812.99,1849,16.38,74434.8,17.01,-18.35,-19.65,0,*7A
1500274814.2,1850,16.38,74432.8,17.01,-18.21,-19.47,0,*77
1500274815.42,1851,16.38,74434.0,17.01,-17.83,-19.03,0,*71
1500274816.65,1852,16.38,74434.5,17.01,-17.63,-18.83,0,*75
1500274817.86,1853,16.38,74436.8,17.07,-17.79,-19.07,0,*74
1500274819.08,1854,16.38,74434.5,17.09,-17.55,-18.73,0,*71
1500274820.33,1855,16.38,74432.8,17.11,-17.59,-18.79,0,*7F
1500274821.55,1856,16.38,74432.0,17.11,-17.83,-19.03,0,*77
1500274822.8,1857,16.38,74432.5,17.15,-17.45,-18.65,0,*79
1500274824.02,1858,16.38,74432.5,17.19,-17.87,-19.07,0,*71
1500274825.21,1859,16.38,74434.8,17.17,-17.87,-19.13,0,*7B
1500274826.43,1860,16.38,74434.0,17.17,-18.79,-20.15,0,*73
1500274827.65,1861,16.38,74434.8,17.19,-18.49,-19.71,0,*77
1500274828.91,1862,16.38,74434.8,17.19,-19.27,-20.63,0,*74
1500274830.14,1863,16.38,74432.5,17.19,-18.65,-19.99,0,*7D
1500274831.4,1864,16.38,74438.0,17.19,-20.35,-21.83,0,*74
1500274832.6,1865,16.38,74436.0,17.21,-20.69,-22.27,0,*7A
1500274833.8,1866,16.38,74434.5,17.17,-19.47,-20.93,0,*77
1500274835.05,1867,16.38,74434.0,17.17,-19.31,-20.83,0,*76
1500274836.29,1868,16.38,74436.0,17.19,-17.59,-19.13,0,*74
1500274837.55,1869,16.38,74438.0,17.19,-18.79,-20.49,0,*7D
1500274838.78,1870,16.38,74432.3,17.19,-20.59,-22.37,0,*77
1500274839.97,1871,16.38,74434.0,17.21,-17.69,-19.51,0,*72
1500274841.2,1872,16.38,74434.8,17.21,-19.17,-21.03,0,*7A
1500274842.46,1873,16.38,74434.5,17.23,-18.41,-20.53,0,*7F
1500274843.66,1874,16.38,74434.8,17.21,-17.83,-19.91,0,*7F
1500274844.91,1875,16.38,74434.3,17.23,-17.21,-19.37,0,*78
1500274846.17,1876,16.38,74438.3,17.23,-17.97,-20.25,0,*7F
1500274847.42,1877,16.38,74432.3,17.23,-21.77,-24.25,0,*71
1500274848.61,1878,16.38,74432.3,17.21,-21.39,-23.89,0,*77
1500274849.84,1879,16.38,74432.0,17.17,-22.57,-25.29,0,*74
1500274851.12,1880,16.38,74432.5,17.15,-23.33,-26.13,0,*79
1500274852.34,1881,16.38,74430.8,17.11,-23.09,-25.91,0,*7C
1500274853.55,1882,16.38,74432.8,17.09,-24.05,-26.87,0,*79
1500274854.79,1883,16.38,74434.3,17.01,-23.53,-26.45,0,*7A
1500274856.0,1884,16.38,74432.5,16.99,-23.75,-26.61,0,*7F
1500274857.22,1885,16.38,74432.0,16.95,-23.13,-26.13,0,*77
1500274858.44,1886,16.38,74432.5,16.91,-23.23,-26.23,0,*70
1500274859.72,1887,16.38,74434.3,16.89,-23.65,-26.71,0,*7D
1500274860.96,1888,16.38,74432.0,16.87,-22.97,-25.71,0,*73
1500274862.18,1889,16.38,74430.3,16.83,-21.27,-23.89,0,*7F
1500274863.42,1890,16.38,74428.3,16.81,-21.63,-24.41,0,*76
1500274864.71,1891,16.38,74434.0,16.81,-21.53,-24.25,0,*76
1500274865.94,1892,16.38,74432.0,16.75,-19.95,-22.57,0,*7C
1500274867.2,1893,16.38,74432.3,16.77,-19.71,-22.47,0,*74
1500274868.42,1894,16.38,74432.5,16.81,-20.93,-23.59,0,*72
1500274869.7,1895,16.38,74432.5,16.77,-21.23,-23.85,0,*71
1500274870.94,1896,16.38,74432.0,16.77,-19.41,-22.07,0,*76
1500274872.16,1897,16.38,74432.0,16.77,-20.05,-22.67,0,*7B
1500274873.41,1898,16.38,74432.5,16.77,-20.15,-22.97,0,*7A
1500274874.66,1899,16.38,74434.8,16.77,-22.03,-24.71,0,*70
1500274875.88,1900,16.38,74432.5,16.73,-21.57,-24.31,0,*73
1500274877.12,1901,16.38,74436.3,16.75,-21.33,-23.39,0,*79
1500274878.33,1902,16.38,74434.5,16.73,-19.71,-22.11,0,*7A
1500274879.53,1903,16.38,74434.3,16.73,-20.69,-23.09,0,*70
1500274880.73,1904,16.38,74434.3,16.73,-20.39,-22.87,0,*75
1500274881.97,1905,16.38,74434.0,16.75,-19.91,-22.21,0,*76
1500274883.22,1906,16.38,74436.5,16.75,-19.57,-21.73,0,*7B
1500274884.42,1907,16.38,74438.3,16.73,-19.75,-22.07,0,*7C
1500274885.7,1908,16.38,74434.3,16.75,-20.99,-23.19,0,*73
1500274886.94,1909,16.38,74434.8,16.73,-21.83,-24.15,0,*75
1500274888.14,1910,16.38,74432.5,16.73,-20.89,-22.97,0,*7A
1500274889.37,1911,16.38,74432.5,16.71,-20.73,-22.93,0,*78
1500274890.56,1912,16.38,74438.5,16.69,-20.39,-22.41,0,*73
1500274891.83,1913,16.38,74432.5,16.71,-19.81,-21.67,0,*75
1500274893.09,1914,16.38,74434.8,16.71,-18.31,-20.09,0,*71
1500274894.34,1915,16.38,74432.8,16.75,-17.97,-19.71,0,*72
1500274895.59,1916,16.38,74430.8,16.81,-17.55,-19.37,0,*76
1500274896.8,1917,16.38,74434.3,16.83,-18.41,-20.25,0,*76
1500274898.02,1918,16.38,74432.3,16.85,-19.17,-21.13,0,*79
1500274899.24,1919,16.38,74434.8,16.85,-20.09,-22.07,0,*7B
1500274900.49,1920,16.38,74430.8,16.85,-19.57,-21.17,0,*72
1500274901.7,1921,16.38,74434.0,16.83,-18.99,-20.69,0,*7E
1500274902.92,1922,16.38,74434.5,16.85,-18.25,-19.91,0,*71
1500274904.16,1923,16.38,74432.3,16.87,-17.55,-19.23,0,*73
1500274905.42,1924,16.38,74434.3,16.89,-18.01,-19.71,0,*73
1500274906.68,1925,16.38,74430.5,16.89,-18.69,-20.49,0,*7D
1500274907.92,1926,16.38,74432.8,16.93,-18.41,-20.15,0,*76
1500274909.15,1927,16.38,74432.3,16.93,-18.49,-20.09,0,*72
1500274910.37,1928,16.38,74434.8,16.93,-18.49,-20.25,0,*73
1500274911.62,1929,16.38,74428.5,16.93,-19.65,-21.43,0,*7C
1500274912.87,1930,16.38,74432.3,16.95,-19.23,-20.83,0,*7D
1500274914.07,1931,16.38,74432.3,16.95,-19.37,-21.09,0,*7A
1500274915.27,1932,16.38,74430.5,16.95,-18.49,-20.05,0,*7C
1500274916.5,1933,16.38,74434.8,16.97,-18.99,-20.43,0,*70
1500274917.73,1934,16.38,74432.5,16.99,-20.15,-22.11,0,*73
1500274918.94,1935,16.38,74434.3,16.99,-20.29,-21.97,0,*70
1500274920.14,1936,16.38,74432.3,16.99,-18.41,-19.99,0,*73
1500274921.35,1937,16.38,74430.8,16.99,-19.37,-20.93,0,*72
1500274922.6,1938,16.38,74432.3,17.01,-19.99,-21.83,0,*79
1500274923.8,1939,16.38,74432.0,16.99,-20.39,-22.27,0,*75
1500274925.03,1940,16.38,74432.5,16.99,-20.93,-22.77,0,*7E
1500274926.27,1941,16.38,74432.5,16.97,-22.07,-23.95,0,*73
1500274927.49,1942,16.38,74436.3,16.95,-21.47,-23.19,0,*71
1500274928.72,1943,16.38,74430.3,16.95,-24.41,-26.45,0,*7F
1500274929.97,1944,16.38,74434.5,16.91,-23.29,-24.87,0,*79
1500274931.22,1945,16.38,74434.3,16.87,-21.87,-23.49,0,*7C
1500274932.45,1946,16.38,74432.0,16.87,-21.13,-22.73,0,*7A
1500274933.7,1947,16.38,74428.5,16.83,-21.03,-22.77,0,*7A
1500274934.95,1948,16.38,74432.8,16.85,-21.27,-22.93,0,*7F
1500274936.2,1949,16.38,74434.0,16.85,-21.63,-23.49,0,*78
1500274937.42,1950,16.38,74432.0,16.83,-21.33,-22.87,0,*70
1500274938.62,1951,16.38,74432.0,16.83,-19.95,-21.63,0,*7F
1500274939.87,1952,16.38,74430.5,16.83,-21.27,-22.73,0,*7C
1500274941.13,1953,16.38,74432.8,16.83,-19.57,-21.03,0,*75
1500274942.38,1954,16.38,74432.0,16.85,-19.47,-21.03,0,*75
1500274943.62,1955,16.38,74430.8,16.85,-20.25,-21.97,0,*77
1500274944.84,1956,16.38,74434.8,16.85,-20.25,-22.07,0,*7E
1500274946.09,1957,16.38,74434.5,16.85,-21.03,-22.87,0,*72
1500274947.29,1958,16.38,74438.0,16.83,-20.73,-22.53,0,*74
1500274948.56,1959,16.38,74434.0,16.85,-20.19,-21.67,0,*7B
1500274949.78,1960,16.38,74432.8,16.85,-21.43,-23.09,0,*75
1500274951.0,1961,16.38,74434.8,16.83,-20.73,-22.21,0,*7B
1500274952.22,1962,16.38,74434.0,16.85,-20.09,-21.63,0,*76
1500274953.45,1963,16.38,74434.8,16.83,-19.57,-21.13,0,*77
1500274954.71,1964,16.38,74434.0,16.85,-19.81,-21.27,0,*7A
1500274955.96,1965,16.38,74432.0,16.85,-21.63,-23.33,0,*7B
1500274957.18,1966,16.38,74432.8,16.85,-20.63,-22.07,0,*7F
1500274958.42,1967,16.38,74432.0,16.85,-20.35,-21.93,0,*73
1500274959.66,1968,16.38,74434.3,16.85,-20.25,-21.83,0,*7C
1500274960.94,1969,16.38,74432.0,16.85,-19.65,-21.03,0,*7B
1500274962.17,1970,16.38,74432.5,16.87,-19.41,-20.93,0,*7F
1500274963.42,1971,16.38,74434.8,16.89,-18.79,-20.19,0,*78
1500274964.62,1972,16.38,74432.3,16.87,-18.21,-19.71,0,*7C
1500274965.85,1973,16.38,74434.0,16.91,-17.79,-19.51,0,*7A
1500274967.05,1974,16.38,74436.0,16.91,-19.71,-21.39,0,*7E
1500274968.26,1975,16.38,74428.5,16.91,-20.43,-22.11,0,*7D
1500274969.49,1976,16.38,74434.5,16.93,-19.13,-20.69,0,*7E
1500274970.71,1977,16.38,74434.5,16.93,-18.73,-20.25,0,*70
1500274971.94,1978,16.38,74434.0,16.93,-19.17,-20.73,0,*7F
1500274973.17,1979,16.38,74436.0,16.97,-18.79,-20.29,0,*7C
1500274974.4,1980,16.38,74432.3,16.97,-18.45,-19.99,0,*74
1500274975.64,1981,16.38,74432.0,17.01,-18.35,-19.91,0,*74
1500274976.87,1982,16.38,74432.0,16.99,-18.59,-19.99,0,*75
1500274978.09,1983,16.38,74430.8,17.01,-17.83,-19.37,0,*78
1500274979.29,1984,16.38,74428.3,17.07,-18.41,-19.91,0,*74
1500274980.54,1985,16.38,74432.3,17.09,-18.01,-19.57,0,*75
1500274981.74,1986,16.38,74432.3,17.09,-18.65,-20.29,0,*77
1500274982.97,1987,16.38,74436.8,17.09,-18.79,-20.35,0,*76
1500274984.17,1988,16.38,74432.8,17.09,-18.45,-19.99,0,*7A
1500274985.45,1989,16.38,74432.8,17.11,-18.01,-19.57,0,*70
1500274986.7,1990,16.38,74434.5,17.11,-18.59,-19.99,0,*77
1500274987.93,1991,16.38,74434.8,17.13,-18.01,-19.47,0,*7A
1500274989.2,1992,16.38,74432.3,17.15,-17.93,-19.27,0,*7D
1500274990.45,1993,16.38,74432.5,17.15,-17.21,-18.65,0,*72
1500274991.7,1994,16.38,74432.3,17.19,-17.41,-18.79,0,*72
1500274992.97,1995,16.38,74432.3,17.19,-17.55,-18.93,0,*72
1500274994.22,1996,16.38,74438.3,17.27,-18.11,-19.57,0,*7A
1500274995.45,1997,16.38,74432.3,17.23,-18.07,-19.47,0,*79
1500274996.69,1998,16.38,74434.0,17.23,-18.89,-20.29,0,*72
1500274997.92,1999,16.38,74434.0,17.27,-19.91,-21.47,0,*76
1500274999.2,2000,16.38,74434.0,17.27,-19.57,-21.27,0,*70
1500275000.45,2001,16.38,74434.0,17.27,-18.65,-20.35,0,*73
1500275001.68,2002,16.38,74434.5,17.29,-19.23,-20.73,0,*7F
1500275002.95,2003,16.38,74434.0,17.27,-20.19,-21.87,0,*79
1500275004.2,2004,16.38,74434.8,17.27,-19.03,-20.53,0,*77
1500275005.45,2005,16.38,74432.8,17.27,-17.87,-19.31,0,*7A
1500275006.67,2006,16.38,74434.0,17.29,-18.17,-19.65,0,*70
1500275007.88,2007,16.38,74432.8,17.29,-19.07,-20.59,0,*74
1500275009.08,2008,16.38,74436.5,17.29,-20.63,-22.37,0,*79
1500275010.33,2009,16.38,74434.0,17.29,-19.65,-20.79,0,*7C
1500275011.55,2010,16.38,74434.3,17.29,-17.83,-19.27,0,*73
1500275012.77,2011,16.38,74434.8,17.33,-17.41,-18.83,0,*78
1500275014.0,2012,16.38,74432.8,17.33,-18.31,-19.95,0,*75
1500275015.24,2013,16.38,74432.5,17.35,-19.13,-20.63,0,*70
1500275016.49,2014,16.38,74432.3,17.35,-18.99,-20.35,0,*77
1500275017.71,2015,16.38,74434.8,17.35,-17.49,-18.79,0,*77
1500275018.94,2016,16.38,74432.5,17.35,-18.49,-19.95,0,*78
1500275020.17,2017,16.38,74434.8,17.37,-18.83,-20.35,0,*7D
1500275021.41,2018,16.38,74432.5,17.39,-17.59,-18.99,0,*79
1500275022.65,2019,16.38,74432.8,17.39,-17.55,-18.73,0,*70
1500275023.9,2020,16.38,74434.5,17.41,-17.55,-18.89,0,*70
1500275025.11,2021,16.38,74436.3,17.43,-17.69,-19.07,0,*7B
1500275026.34,2022,16.38,74432.0,17.45,-17.45,-18.73,0,*72
1500275027.57,2023,16.38,74436.5,17.49,-16.83,-18.31,0,*72
1500275028.79,2024,16.38,74432.5,17.51,-18.17,-19.51,0,*78
1500275030.02,2025,16.38,74432.3,17.53,-17.87,-19.31,0,*7B
1500275031.22,2026,16.38,74432.5,17.53,-18.41,-19.71,0,*79
1500275032.45,2027,16.38,74432.3,17.53,-17.97,-19.37,0,*7E
1500275033.68,2028,16.38,74436.3,17.53,-18.31,-19.71,0,*70
1500275034.9,2029,16.38,74434.3,17.53,-18.01,-19.47,0,*77
1500275036.15,2030,16.38,74434.8,17.55,-18.07,-19.41,0,*79
1500275037.36,2031,16.38,74430.3,17.57,-18.07,-19.37,0,*7B
1500275038.63,2032,16.38,74434.3,17.59,-17.93,-19.23,0,*71
1500275039.85,2033,16.38,74432.5,17.59,-18.17,-19.51,0,*76
1500275041.09,2034,16.38,74432.5,17.59,-17.59,-19.13,0,*72
1500275042.29,2035,16.38,74434.0,17.61,-17.69,-19.07,0,*7E
1500275043.51,2036,16.38,74434.3,17.63,-19.03,-20.69,0,*7F
1500275044.74,2037,16.38,74434.0,17.63,-19.03,-20.43,0,*76
1500275045.98,2038,16.38,74436.5,17.61,-19.07,-20.49,0,*75
1500275047.22,2039,16.38,74434.0,17.63,-19.13,-20.73,0,*7A
1500275048.45,2040,16.38,74432.8,17.63,-18.99,-20.39,0,*79
1500275049.68,2041,16.38,74436.0,17.61,-20.09,-21.67,0,*72
1500275050.93,2042,16.38,74432.0,17.63,-19.91,-21.67,0,*78
1500275052.14,2043,16.38,74436.5,17.61,-20.43,-22.11,0,*7C
1500275053.42,2044,16.38,74432.8,17.59,-19.57,-21.23,0,*7D
1500275054.65,2045,16.38,74430.5,17.59,-18.69,-20.29,0,*7B
1500275055.92,2046,16.38,74434.5,17.59,-20.15,-22.17,0,*77
1500275057.17,2047,16.38,74434.8,17.59,-20.83,-22.57,0,*7D
1500275058.37,2048,16.38,74434.8,17.57,-19.99,-21.73,0,*78
1500275059.62,2049,16.38,74432.0,17.59,-18.49,-20.19,0,*76
1500275060.84,2050,16.38,74434.3,17.59,-19.07,-20.69,0,*72
1500275062.1,2051,16.38,74432.0,17.59,-19.23,-20.93,0,*70
1500275063.37,2052,16.38,74438.0,17.59,-20.99,-22.73,0,*74
1500275064.62,2053,16.38,74438.0,17.59,-20.63,-22.17,0,*72
1500275065.87,2054,16.38,74432.5,17.59,-18.83,-20.35,0,*72
1500275067.1,2055,16.38,74438.0,17.61,-18.31,-19.71,0,*7B
1500275068.33,2056,16.38,74436.5,17.61,-18.01,-19.51,0,*79
1500275069.59,2057,16.38,74434.8,17.61,-17.41,-18.93,0,*7C
1500275070.86,2058,16.38,74432.5,17.63,-17.79,-19.31,0,*73
1500275072.08,2059,16.38,74434.3,17.67,-18.41,-19.99,0,*70
1500275073.35,2060,16.38,74434.8,17.67,-17.63,-19.27,0,*70
1500275074.56,2061,16.38,74434.3,17.69,-17.45,-19.07,0,*79
1500275075.78,2062,16.38,74434.3,17.69,-17.73,-19.23,0,*79
1500275077.0,2063,16.38,74436.3,17.69,-17.55,-19.17,0,*7B
1500275078.28,2064,16.38,74436.3,17.73,-18.35,-19.85,0,*75
1500275079.52,2065,16.38,74434.8,17.73,-17.69,-19.23,0,*7E
1500275080.72,2066,16.38,74434.5,17.75,-18.21,-19.75,0,*7B
1500275081.95,2067,16.38,74432.5,17.75,-18.99,-20.83,0,*7A
1500275083.16,2068,16.38,74432.5,17.75,-18.83,-20.29,0,*7E
1500275084.38,2069,16.38,74436.5,17.75,-18.21,-19.65,0,*75
1500275085.61,2070,16.38,74432.0,17.77,-18.25,-19.75,0,*7A
1500275086.81,2071,16.38,74434.8,17.79,-18.21,-19.71,0,*75
1500275088.02,2072,16.38,74432.8,17.79,-18.69,-20.25,0,*71
1500275089.24,2073,16.38,74438.0,17.79,-19.41,-21.09,0,*74
1500275090.45,2074,16.38,74438.8,17.79,-19.71,-21.17,0,*7F
1500275091.67,2075,16.38,74432.3,17.79,-18.65,-20.15,0,*79
1500275092.91,2076,16.38,74432.8,17.81,-17.59,-19.07,0,*74
1500275094.16,2077,16.38,74438.8,17.81,-17.41,-18.79,0,*74
1500275095.38,2078,16.38,74436.0,17.83,-18.07,-19.65,0,*78
1500275096.6,2079,16.38,74434.5,17.83,-18.69,-20.15,0,*7C
1500275097.86,2080,16.38,74434.3,17.85,-18.21,-19.57,0,*7C
1500275099.09,2081,16.38,74432.0,17.85,-18.79,-20.39,0,*72
1500275100.35,2082,16.38,74432.8,17.85,-19.71,-21.27,0,*76
1500275101.55,2083,16.44,74438.3,17.83,-18.69,-19.95,0,*7B
1500275102.78,2084,16.38,74438.0,17.87,-18.11,-19.57,0,*79
1500275104.06,2085,16.38,74438.0,17.85,-17.93,-19.57,0,*7F
1500275105.29,2086,16.38,74436.3,17.87,-18.65,-20.35,0,*76
1500275106.56,2087,16.38,74438.5,17.89,-19.41,-20.99,0,*78
1500275107.79,2088,16.38,74432.5,17.87,-18.99,-20.53,0,*7B
1500275109.02,2089,16.38,74438.0,17.87,-18.83,-20.35,0,*71
1500275110.28,2090,16.38,74434.0,17.89,-17.55,-18.89,0,*7F
1500275111.53,2091,16.38,74436.3,17.89,-17.11,-18.49,0,*72
1500275112.78,2092,16.38,74438.3,17.95,-17.03,-18.31,0,*70
1500275113.97,2093,16.38,74432.3,17.95,-16.89,-18.17,0,*76
1500275115.2,2094,16.38,74436.0,17.97,-16.83,-18.11,0,*7F
1500275116.4,2095,16.38,74436.5,18.03,-16.83,-18.17,0,*7A
1500275117.65,2096,16.38,74434.3,18.03,-16.65,-17.97,0,*76
1500275118.87,2097,16.38,74436.3,18.03,-18.25,-19.81,0,*74
1500275120.11,2098,16.38,74438.5,18.05,-18.99,-20.49,0,*74
1500275121.33,2099,16.38,74434.3,18.03,-18.59,-20.09,0,*7B
1500275122.57,2100,16.38,74436.5,18.01,-17.25,-18.65,0,*7D
1500275123.8,2101,16.38,74434.5,18.07,-17.31,-18.69,0,*73
1500275125.03,2102,16.38,74434.8,18.07,-18.41,-19.75,0,*74
1500275126.26,2103,16.38,74438.5,18.07,-19.03,-20.63,0,*7F
1500275127.47,2104,16.38,74434.5,18.09,-18.79,-20.29,0,*74
1500275128.7,2105,16.38,74434.3,18.05,-19.03,-20.53,0,*78
1500275129.95,2106,16.38,74434.3,18.05,-19.61,-21.33,0,*78
1500275131.19,2107,16.38,74436.8,18.05,-19.81,-21.33,0,*77
1500275132.44,2108,16.38,74434.3,18.07,-19.95,-21.57,0,*7D
1500275133.65,2109,16.38,74438.5,18.05,-19.17,-20.73,0,*73
1500275134.88,2110,16.38,74438.8,18.07,-17.73,-19.13,0,*79
1500275136.11,2111,16.38,74434.8,18.07,-17.73,-19.17,0,*7C
1500275137.31,2112,16.38,74434.5,18.09,-18.17,-19.71,0,*7C
1500275138.58,2113,16.38,74436.0,18.09,-19.27,-20.99,0,*73
1500275139.8,2114,16.38,74438.8,18.09,-21.93,-23.95,0,*7F
1500275141.0,2115,16.38,74436.0,18.05,-22.67,-24.61,0,*76
1500275142.22,2116,16.38,74434.8,18.03,-20.39,-21.97,0,*76
1500275143.42,2117,16.38,74438.0,18.03,-18.73,-20.29,0,*76
1500275144.66,2118,16.38,74432.8,18.01,-19.13,-20.63,0,*72
1500275145.88,2119,16.38,74436.3,18.03,-19.61,-21.09,0,*79
1500275147.08,2120,16.38,74438.3,18.03,-19.07,-20.69,0,*74
1500275148.3,2121,16.38,74436.8,18.03,-19.61,-21.09,0,*72
1500275149.52,2122,16.38,74434.5,18.03,-20.15,-21.77,0,*71
1500275150.75,2123,16.38,74436.3,18.03,-19.03,-20.53,0,*7A
1500275151.97,2124,16.38,74438.3,18.03,-18.41,-19.81,0,*7F
1500275153.17,2125,16.38,74434.3,18.05,-18.49,-19.95,0,*75
1500275154.4,2126,16.38,74436.8,18.05,-18.25,-19.61,0,*77
1500275155.6,2127,16.38,74434.0,18.05,-17.83,-19.47,0,*71
1500275156.81,2128,16.38,74434.5,18.05,-18.41,-19.95,0,*70
1500275158.01,2129,16.38,74432.3,18.09,-18.45,-20.05,0,*7A
1500275159.3,2130,16.38,74438.5,18.07,-19.61,-21.27,0,*7A
1500275160.51,2131,16.38,74436.5,18.09,-18.79,-20.29,0,*72
1500275161.73,2132,16.38,74434.8,18.09,-20.05,-21.67,0,*7A
1500275162.96,2133,16.38,74432.3,18.09,-20.35,-22.03,0,*79
1500275164.19,2134,16.44,74440.5,18.07,-19.95,-21.63,0,*75
1500275165.39,2135,16.38,74438.5,18.09,-18.45,-19.91,0,*70
1500275166.62,2136,16.38,74436.3,18.09,-17.41,-18.83,0,*7A
1500275167.85,2137,16.38,74434.5,18.09,-19.07,-20.79,0,*79
1500275169.08,2138,16.38,74438.8,18.09,-20.99,-22.63,0,*72
1500275170.3,2139,16.38,74438.3,18.07,-22.41,-24.35,0,*7F
1500275171.5,2140,16.38,74438.5,18.03,-22.03,-23.75,0,*70
1500275172.71,2141,16.38,74436.0,18.03,-18.73,-20.15,0,*7A
1500275173.91,2142,16.38,74436.3,18.05,-17.73,-19.17,0,*78
1500275175.14,2143,16.38,74438.0,18.05,-17.73,-19.27,0,*7A
1500275176.39,2144,16.38,74436.3,18.07,-18.55,-20.05,0,*7E
1500275177.64,2145,16.38,74436.3,18.07,-17.21,-18.83,0,*76
1500275178.89,2146,16.38,74434.3,18.11,-17.49,-18.93,0,*7D
1500275180.15,2147,16.38,74438.5,18.11,-17.11,-18.59,0,*77
1500275181.42,2148,16.38,74436.3,18.11,-17.07,-18.55,0,*73
1500275182.65,2149,16.38,74434.0,18.17,-17.45,-18.99,0,*72
1500275183.88,2150,16.38,74438.3,18.13,-17.69,-19.31,0,*73
1500275185.1,2151,16.38,74436.5,18.17,-17.93,-19.47,0,*72
1500275186.36,2152,16.38,74434.0,18.19,-18.59,-20.63,0,*7A
1500275187.6,2153,16.38,74434.3,18.17,-19.31,-21.17,0,*78
1500275188.86,2154,16.38,74438.3,18.19,-18.69,-20.53,0,*7C
1500275190.06,2155,16.38,74434.3,18.21,-18.69,-20.63,0,*75
1500275191.32,2156,16.38,74436.5,18.19,-18.93,-20.69,0,*72
1500275192.54,2157,16.44,74436.0,18.21,-17.73,-19.41,0,*79
1500275193.79,2158,16.38,74436.5,18.21,-19.23,-20.83,0,*79
1500275195.03,2159,16.38,74434.3,18.19,-18.83,-20.63,0,*76
1500275196.27,2160,16.38,74432.0,18.19,-19.85,-21.63,0,*7A
1500275197.53,2161,16.38,74436.5,18.19,-18.65,-20.49,0,*7D
1500275198.79,2162,16.38,74438.3,18.19,-18.07,-19.85,0,*70
1500275200.04,2163,16.38,74434.0,18.19,-17.93,-19.75,0,*7C
1500275201.27,2164,16.38,74434.3,18.21,-18.69,-20.53,0,*74
1500275202.5,2165,16.38,74432.3,18.21,-18.93,-20.69,0,*79
1500275203.72,2166,16.38,74436.5,18.21,-18.59,-20.43,0,*74
1500275204.98,2167,16.38,74438.0,18.19,-19.07,-20.79,0,*7D
1500275206.21,2168,16.38,74434.8,18.23,-19.81,-21.73,0,*7E
1500275207.43,2169,16.38,74432.5,18.21,-20.53,-22.53,0,*79
1500275208.68,2170,16.38,74438.5,18.19,-20.29,-22.17,0,*77
1500275209.93,2171,16.38,74438.0,18.19,-19.85,-21.73,0,*7B
1500275211.16,2172,16.38,74432.0,18.17,-19.95,-21.83,0,*78
1500275212.41,2173,16.38,74434.8,18.13,-20.53,-22.31,0,*77
1500275213.65,2174,16.38,74434.3,18.13,-20.43,-22.17,0,*75
1500275214.9,2175,16.44,74438.8,18.11,-19.99,-21.83,0,*75
1500275216.15,2176,16.38,74434.3,18.11,-19.95,-21.83,0,*7A
1500275217.39,2177,16.38,74434.8,18.17,-20.59,-22.31,0,*7D
1500275218.63,2178,16.38,74432.3,18.11,-20.09,-21.97,0,*7E
1500275219.88,2179,16.38,74432.8,18.11,-20.09,-21.87,0,*7E
1500275221.11,2180,16.38,74438.3,18.09,-20.63,-22.47,0,*72
1500275222.37,2181,16.38,74434.3,18.09,-19.85,-21.67,0,*70
1500275223.61,2182,16.38,74434.5,18.09,-19.51,-21.27,0,*7E
1500275224.84,2183,16.38,74432.3,18.09,-19.71,-21.53,0,*7E
1500275226.06,2184,16.44,74438.3,18.07,-20.09,-21.63,0,*71
1500275227.27,2185,16.38,74434.5,18.05,-19.81,-21.73,0,*79
1500275228.5,2186,16.44,74438.3,18.07,-20.69,-22.53,0,*75
1500275229.75,2187,16.38,74436.8,18.05,-19.41,-20.99,0,*72
1500275231.01,2188,16.38,74434.0,18.05,-19.27,-21.03,0,*7F
1500275232.27,2189,16.38,74432.3,18.07,-19.17,-21.03,0,*7F
1500275233.5,2190,16.38,74434.8,18.07,-19.75,-21.47,0,*73
1500275234.73,2191,16.38,74432.8,18.05,-19.17,-20.83,0,*7D
1500275235.99,2192,16.44,74438.0,18.11,-19.51,-21.23,0,*72
1500275237.28,2193,16.38,74432.3,18.07,-17.97,-19.57,0,*78
1500275238.51,2194,16.44,74438.3,18.09,-17.41,-18.99,0,*79
1500275239.74,2195,16.44,74438.3,18.09,-17.25,-18.73,0,*7E
1500275240.96,2196,16.38,74438.3,18.13,-17.69,-19.23,0,*7A
1500275242.17,2197,16.38,74436.5,18.13,-19.07,-20.93,0,*7C
1500275243.39,2198,16.38,74432.3,18.13,-17.73,-19.23,0,*7F
1500275244.61,2199,16.44,74436.5,18.17,-17.63,-19.17,0,*7C
1500275245.84,2200,16.38,74432.8,18.19,-18.49,-20.29,0,*71
1500275247.1,2201,16.38,74436.8,18.19,-17.45,-18.69,0,*7C
1500275248.34,2202,16.38,74436.0,18.19,-17.41,-19.07,0,*72
1500275249.54,2203,16.38,74438.0,18.21,-17.73,-19.37,0,*7A
1500275250.74,2204,16.44,74436.0,18.21,-19.99,-22.03,0,*78
1500275251.96,2205,16.38,74438.3,18.21,-18.79,-20.79,0,*79
1500275253.16,2206,16.38,74438.0,18.21,-18.07,-19.91,0,*7F
1500275254.39,2207,16.38,74436.3,18.21,-17.93,-19.99,0,*74
1500275255.64,2208,16.38,74438.5,18.21,-18.93,-20.99,0,*7E
1500275256.92,2209,16.44,74438.5,18.23,-19.23,-21.53,0,*70
1500275258.18,2210,16.44,74440.0,18.19,-18.99,-21.23,0,*76
1500275259.44,2211,16.38,74436.0,18.23,-17.49,-19.57,0,*74
1500275260.69,2212,16.38,74440.3,18.23,-18.55,-20.89,0,*7C
1500275261.92,2213,16.38,74438.0,18.23,-19.37,-21.73,0,*7C
1500275263.11,2214,16.38,74438.8,18.21,-20.69,-23.13,0,*7C
1500275264.34,2215,16.44,74438.8,18.19,-18.83,-21.13,0,*7B
1500275265.57,2216,16.38,74436.3,18.21,-18.69,-20.99,0,*74
1500275266.8,2217,16.38,74436.5,18.19,-19.13,-21.43,0,*74
1500275268.04,2218,16.44,74440.5,18.21,-18.69,-21.23,0,*7A
1500275269.3,2219,16.44,74438.8,18.19,-18.99,-21.27,0,*7B
1500275270.57,2220,16.38,74438.5,18.19,-19.85,-22.31,0,*79
1500275271.78,2221,16.38,74436.8,18.17,-19.17,-21.47,0,*7F
1500275273.04,2222,16.38,74438.3,18.17,-17.21,-19.31,0,*7D
1500275274.26,2223,16.44,74440.8,18.19,-16.55,-18.79,0,*7D
1500275275.46,2224,16.44,74442.5,18.21,-16.55,-18.65,0,*7C
1500275276.67,2225,16.44,74442.3,18.23,-16.93,-19.07,0,*70
1500275277.9,2226,16.38,74436.0,18.25,-16.65,-18.83,0,*71
1500275279.12,2227,16.38,74434.8,18.27,-17.31,-19.47,0,*7B
1500275280.37,2228,16.44,74442.0,18.27,-16.51,-18.65,0,*72
1500275281.6,2229,16.44,74440.5,18.31,-16.45,-18.59,0,*7E
1500275282.79,2230,16.44,74442.0,18.33,-16.97,-19.03,0,*75
1500275284.04,2231,16.38,74438.3,18.33,-17.25,-19.23,0,*7E
1500275285.24,2232,16.38,74438.5,18.33,-18.41,-20.63,0,*7E
1500275286.47,2233,16.38,74438.8,18.37,-17.35,-19.47,0,*7B
1500275287.73,2234,16.38,74438.3,18.37,-18.35,-20.39,0,*70
1500275288.98,2235,16.44,74440.5,18.35,-18.35,-20.59,0,*75
1500275290.2,2236,16.44,74438.8,18.35,-18.11,-20.09,0,*75
1500275291.43,2237,16.38,74436.5,18.41,-16.83,-18.73,0,*74
1500275292.65,2238,16.44,74440.3,18.43,-17.07,-19.51,0,*75
1500275293.85,2239,16.38,74438.0,18.43,-16.79,-18.73,0,*7D
1500275295.07,2240,16.38,74436.5,18.43,-16.93,-18.93,0,*79
1500275296.31,2241,16.38,74436.3,18.47,-17.59,-19.61,0,*77
1500275297.53,2242,16.44,74438.8,18.45,-19.95,-22.07,0,*70
1500275298.78,2243,16.38,74436.3,18.45,-19.31,-21.39,0,*71
1500275300.03,2244,16.44,74438.8,18.45,-19.17,-21.33,0,*78
1500275301.25,2245,16.44,74438.3,18.41,-19.07,-21.09,0,*75